Погода в Кипреве

Россия / Владимирская область     56°14′14″N   38°59′31″E
темп.,
°C
ветер,
м/с
пор.,
м/с
влажн.,
%
обл.,
%
осадки,
мм/ч
давл.,
гПа
погр.,
м
24 мая, вт
вт2400:00+4сз2362100 0.0 100469
03:00+4сз31061100 0.0 1004504
06:00+5сз41162100 0.0 10041444
09:00+3сз4994100 0.3 1005622
12:00+5ссз4677100 0.6 10071222
15:00+5ссз4671100 1.1 10081284
18:00+6ссз4669100 0.4 10091167
21:00+3ссз2785100 0.6 1011242
25 мая, ср
ср2500:000ссз28965 0.1 1013172
03:00−2ссз25989 0.1 1014113
06:00+1ссз26885 0.0 1015209
09:00+7ссз34555 0.0 10151122
12:00+10сз344198 0.0 10141951
15:00+12сз343897 0.0 10142147
18:00+11зсз244997 0.0 10131657
21:00+6з2267100 0.0 101317
26 мая, чт
чт2600:00+5з2679100 0.0 1013130
03:00+6з2380100 0.0 101284
06:00+6зюз2484100 0.0 1011228
09:00+10юз2464100 0.0 1010740
12:00+16юз36448 0.0 10081813
15:00+18зюз3737100 0.0 10062548
18:00+14юз51067100 0.1 1004490
21:00+10юз3997100 1.3 1004420
27 мая, пт
пт2700:00+9ююз2599100 1.6 1001200
03:00+9зюз2599100 6.3 1000173
06:00+9зюз2598100 1.9 999247
09:00+9зюз399596 1.9 999510
12:00+12з578575 1.0 10001035
15:00+14з587392 2.1 10011411
18:00+13з487516 0.7 10011089
21:00+9ююз378878 0.8 1002148
28 мая, сб
сб2800:00+8ююз3892100 0.0 1001176
03:00+8ююз3794100 0.1 999212
06:00+8ююв1499100 2.6 998246
09:00+10юз51094100 3.2 997809
12:00+12зюз697676 0.8 9981354
15:00+15з711445 1.1 9992508
18:00+13зюз595752 0.1 10011549
21:00+8ююз3885100 0.3 1002207